[[{"header":{"parameterUnit":"m.s-1","parameterCategory":1,"la1":30.2991,"la2":30.254,"lo1":-89.0895,"lo2":-89.0444,"dy":0.0017,"dx":0.0017,"nx":28,"ny":28,"refTime":"2025-07-11T09:00:00:Z","depth":0,"parameterNumber":2,"parameterNumberName":"U-component_of_WINDS"},"data":[0,0,0,0,0,0,0,0,0,0,0,0,0,0,0,0,0,0,0,0,0,0,0,0,0,0,0,0,0,0,0,0,0,0,0,0,0,0,0,0,0,0,0,0,0,0,0,0,0,0,0,0,0,0,0,0,0,0,4.4558,4.456,0,4.4709,4.4711,4.4713,4.4656,4.4652,4.4649,4.4646,4.4802,4.4809,4.4817,0,0,0,0,0,0,0,0,0,0,0,0,0,4.4219,4.4225,4.4558,4.456,4.4562,4.4709,4.4711,4.4713,4.4656,4.4652,4.4648,4.4644,4.48,4.4808,4.4817,0,0,0,0,0,0,0,0,0,0,0,0,0,4.4368,4.4228,4.4557,4.4551,4.4552,4.4708,4.4711,4.4714,4.4657,4.4652,4.4647,4.4642,4.4797,4.4808,4.4818,4.4991,0,0,4.4852,4.4857,0,0,0,0,0,0,0,0,4.4359,4.438,4.455,4.4552,4.4553,4.4658,4.4649,4.4806,4.4659,4.4617,4.4646,4.464,4.4759,4.4772,4.4812,4.4998,4.5005,4.4853,4.486,4.4865,4.4868,0,0,0,0,0,0,0,4.4349,4.4373,4.4618,4.4553,4.4555,4.454,4.4556,4.4678,4.4715,4.4621,4.4617,4.4635,4.4758,4.4802,4.4815,4.5007,4.4853,4.4863,4.487,4.4874,4.5337,4.5342,0,0,0,0,0,0,4.4338,4.4365,4.4613,4.4622,4.4441,4.4551,4.4568,4.463,4.4714,4.4722,4.464,4.4632,4.4785,4.4803,4.4821,4.5024,4.4865,4.4875,4.4881,4.5331,4.5338,4.5344,0,0,0,0,0,0,4.4331,4.4361,4.4607,4.4493,4.4523,4.4562,4.4632,4.4636,4.4679,4.4728,4.4734,4.4677,4.4782,4.4805,4.4948,4.5029,4.488,4.489,4.5324,4.5333,4.5341,4.5435,0,0,0,0,0,0,4.4322,4.4359,4.4425,4.4495,4.4529,4.4732,4.4637,4.4642,4.4698,4.4689,4.4765,4.4773,4.478,4.4931,4.4959,4.5041,4.4899,4.5317,4.5328,4.5338,4.5424,4.5445,4.5463,0,0,0,0,0,4.431,4.4447,4.4429,4.4459,4.4613,4.4737,4.4756,4.4761,4.4705,4.4771,4.4802,4.477,4.5016,4.4946,4.4977,4.5064,4.5312,4.5325,4.5337,4.5416,4.5441,4.5463,0,0,0,0,0,0,4.4387,4.4456,4.4437,4.46,4.4663,4.4727,4.4811,4.4789,4.4869,4.4858,4.4861,4.4879,4.5024,4.5059,4.498,4.5233,4.5155,4.5175,4.5205,4.5229,4.5248,4.5236,4.4908,0,0,0,0,0,4.4423,4.4518,4.4573,4.4712,4.4744,4.4772,4.4826,4.4824,4.4889,4.4916,4.4958,4.5022,4.5113,4.5174,4.5261,4.543,4.5443,4.5504,4.5524,4.5539,4.5555,4.5643,4.5669,4.5386,4.5385,4.5385,0,0,4.4498,4.4548,4.4607,4.4728,4.4776,4.4873,4.4795,4.4902,4.4973,4.4932,4.5068,4.5101,4.5173,4.5328,4.5399,4.5361,4.5637,4.5556,4.5568,4.5575,4.5659,4.5685,4.5709,4.5394,4.5393,4.5391,0,0,4.4684,4.4733,4.4851,4.4901,4.4974,4.4991,4.502,4.5087,4.5106,4.5243,4.5213,4.5298,4.5456,4.5507,4.5554,4.5756,4.5729,4.5785,4.5885,4.5971,4.5993,4.6013,4.6081,4.6106,4.5801,4.5802,4.5802,0,4.4769,4.4913,4.4916,4.5024,4.5076,4.5042,4.5161,4.521,4.5308,4.5345,4.5302,4.5497,4.5544,4.5708,4.5757,4.5797,4.5828,4.5775,4.599,4.6009,4.6028,4.6093,4.6119,4.5808,4.5807,4.5806,4.5806,0,4.5012,4.5112,4.52,4.5293,4.5356,4.547,4.5488,4.5551,4.5543,4.5564,4.5702,4.5756,4.5851,4.5891,4.5886,4.6054,4.6028,4.5988,4.591,4.6061,4.6122,4.6147,4.5816,4.5814,4.5812,4.5811,0,0,4.5251,4.5342,4.5374,4.5414,4.5491,4.5569,4.568,4.5772,4.5824,4.5893,4.5984,4.6118,4.6079,4.6132,4.6132,4.6208,4.6359,4.6157,4.6159,4.619,4.6544,4.6571,4.6601,4.6342,4.6347,4.6351,4.6536,0,4.544,4.5634,4.5637,4.5815,4.5905,4.5873,4.5969,4.6026,4.6049,4.6129,4.6154,4.6247,4.6192,4.6223,4.6296,4.6325,4.643,4.6313,4.6425,4.6429,4.6405,4.6633,4.6664,4.6836,4.6561,4.6565,4.6568,0,4.5687,4.5761,4.5947,4.6007,4.6045,4.6132,4.6214,4.6292,4.6355,4.6366,4.6424,4.6411,4.6522,4.6442,4.6594,4.6514,4.656,4.6581,4.6588,4.6596,4.6506,4.6645,4.6892,4.6916,4.6606,4.6603,4.6601,0,4.5838,4.5985,4.6114,4.615,4.6224,4.6285,4.6319,4.6377,4.6431,4.6503,4.6538,4.6623,4.6669,4.6735,4.6745,4.6686,4.6896,4.6818,4.6906,4.6906,4.695,4.6947,4.7205,4.6986,4.6985,4.6985,4.6984,0,4.6048,4.6162,4.6182,4.6261,4.6386,4.6389,4.6514,4.6543,4.6594,4.6677,4.6656,4.6734,4.6744,4.6825,4.6834,4.6956,4.6978,4.6988,4.6989,4.6988,4.6987,4.7017,4.7004,4.6992,4.699,4.6989,4.6988,0,4.6237,4.6256,4.6393,4.6452,4.6469,4.6558,4.6608,4.6683,4.6702,4.6807,4.6832,4.6863,4.6956,4.6973,4.7084,4.709,4.7234,4.7225,4.7212,4.721,4.7296,4.7286,4.758,4.7617,4.7377,4.7379,4.7381,0,4.6368,4.6454,4.6521,4.6574,4.6611,4.6698,4.6751,4.6757,4.6814,4.6891,4.6955,4.7046,4.7119,4.7269,4.7301,4.7385,4.7375,4.7472,4.7387,4.7383,4.7372,4.7365,4.7372,4.7487,4.749,4.7492,4.7494,0,4.6597,4.6601,4.6679,4.676,4.6825,4.6889,4.695,4.6995,4.7008,4.7073,4.7167,4.7224,4.7335,4.7424,4.7507,4.7541,4.7519,4.7521,4.7545,4.7544,4.7531,4.7535,4.7253,4.7513,4.7511,4.751,4.7509,4.7508,4.6759,4.6832,4.6889,4.6976,4.7022,4.7079,4.715,4.7178,4.7256,4.7346,4.7345,4.7447,4.7505,4.7614,4.7653,4.7732,4.7701,4.7738,4.7746,4.7754,4.776,4.7521,4.7748,4.7748,4.7747,4.7747,4.7746,0,4.6983,4.7018,4.7098,4.7182,4.725,4.7223,4.7288,4.7346,4.7436,4.7491,4.7562,4.7669,4.7754,4.7792,4.7876,4.7932,4.7924,4.7954,4.7948,4.7955,4.7785,4.7754,4.7959,4.7959,4.7959,4.7959,4.7959,4.7959,4.7108,4.7229,4.7239,4.7382,4.7416,4.7515,4.7554,4.7605,4.7649,4.7768,4.7839,4.7862,4.791,4.7997,4.8073,4.8082,4.8112,4.8146,4.815,4.799,4.7968,4.7947,4.7918,4.8154,4.8154,4.8313,4.8315,4.8316]},{"header":{"parameterUnit":"m.s-1","parameterCategory":1,"la1":30.2991,"la2":30.254,"lo1":-89.0895,"lo2":-89.0444,"dy":0.0017,"dx":0.0017,"nx":28,"ny":28,"refTime":"2025-07-11T09:00:00:Z","depth":0,"parameterNumber":3,"parameterNumberName":"V-component_of_WINDS"},"data":[0,0,0,0,0,0,0,0,0,0,0,0,0,0,0,0,0,0,0,0,0,0,0,0,0,0,0,0,0,0,0,0,0,0,0,0,0,0,0,0,0,0,0,0,0,0,0,0,0,0,0,0,0,0,0,0,0,0,0.6796,0.6796,0,0.6767,0.6766,0.6766,0.6703,0.6701,0.67,0.6699,0.6671,0.6671,0.6672,0,0,0,0,0,0,0,0,0,0,0,0,0,0.6797,0.6798,0.6796,0.6796,0.6795,0.6767,0.6766,0.6766,0.6703,0.6701,0.67,0.6698,0.6671,0.6671,0.6672,0,0,0,0,0,0,0,0,0,0,0,0,0,0.6785,0.6798,0.6796,0.676,0.6757,0.6767,0.6766,0.6766,0.6703,0.6701,0.6699,0.6697,0.667,0.6671,0.6672,0.6715,0,0,0.6674,0.6674,0,0,0,0,0,0,0,0,0.6786,0.6785,0.6766,0.6763,0.6759,0.6736,0.6756,0.6749,0.6704,0.6724,0.6699,0.6696,0.6694,0.6693,0.6692,0.6714,0.6712,0.6674,0.6674,0.6675,0.6675,0,0,0,0,0,0,0,0.6787,0.6786,0.6785,0.6766,0.6761,0.6746,0.6742,0.6755,0.672,0.6722,0.6717,0.6714,0.6692,0.6691,0.6691,0.6712,0.6674,0.6674,0.6675,0.6675,0.6765,0.6767,0,0,0,0,0,0,0.6793,0.6788,0.6785,0.6784,0.6768,0.6747,0.6743,0.6746,0.672,0.6714,0.6716,0.6711,0.6691,0.669,0.6689,0.6737,0.6675,0.6675,0.6676,0.6763,0.6766,0.6768,0,0,0,0,0,0,0.6793,0.6793,0.6787,0.6784,0.6782,0.6749,0.6753,0.6746,0.6745,0.6716,0.6709,0.6722,0.6689,0.6688,0.6708,0.6735,0.6676,0.6676,0.6761,0.6764,0.6767,0.6833,0,0,0,0,0,0,0.6794,0.6794,0.681,0.6785,0.6783,0.6807,0.6754,0.6747,0.6746,0.674,0.6719,0.6714,0.6688,0.6708,0.6709,0.6735,0.6677,0.6759,0.6762,0.6766,0.6829,0.6838,0.6846,0,0,0,0,0,0.6794,0.6831,0.6811,0.6812,0.6802,0.6808,0.6807,0.6776,0.6749,0.6765,0.6745,0.6714,0.6732,0.671,0.6711,0.6738,0.6757,0.6761,0.6766,0.6825,0.6836,0.6846,0,0,0,0,0,0,0.6862,0.6827,0.6805,0.6835,0.6825,0.6797,0.6817,0.6789,0.6787,0.6781,0.6743,0.6739,0.6764,0.6753,0.6729,0.6777,0.6739,0.6744,0.6784,0.6794,0.6803,0.6806,0.6677,0,0,0,0,0,0.688,0.6887,0.6857,0.6886,0.6882,0.685,0.6852,0.6828,0.6817,0.6812,0.6794,0.6784,0.6787,0.679,0.6791,0.6826,0.682,0.6845,0.6854,0.6861,0.6866,0.6882,0.6892,0.6783,0.6783,0.6782,0,0,0.6918,0.69,0.6907,0.6899,0.6889,0.6897,0.6847,0.6859,0.6865,0.6814,0.6831,0.6818,0.6804,0.6831,0.6842,0.6823,0.6895,0.6867,0.6873,0.6874,0.6888,0.6898,0.6907,0.6786,0.6785,0.6785,0,0,0.6992,0.6979,0.7001,0.6991,0.6975,0.6953,0.6959,0.6935,0.6923,0.694,0.6901,0.6908,0.6914,0.6905,0.6901,0.6969,0.694,0.697,0.7017,0.7033,0.7042,0.7049,0.7073,0.7082,0.6975,0.6975,0.6975,0,0.7042,0.7052,0.7017,0.703,0.7027,0.698,0.7002,0.6994,0.698,0.6978,0.6956,0.6961,0.6949,0.6973,0.6989,0.6988,0.6992,0.6973,0.7043,0.705,0.7057,0.7079,0.7088,0.6979,0.6979,0.6978,0.6978,0,0.7114,0.7122,0.7142,0.7127,0.7127,0.7144,0.7111,0.7114,0.709,0.7071,0.7087,0.707,0.7066,0.707,0.7047,0.709,0.7078,0.705,0.7011,0.7072,0.7091,0.71,0.6984,0.6983,0.6982,0.6981,0,0,0.7231,0.7195,0.7203,0.7195,0.7172,0.7178,0.7193,0.7188,0.7191,0.7182,0.7193,0.7198,0.7171,0.7167,0.7143,0.7157,0.721,0.7127,0.7126,0.7143,0.7255,0.7276,0.7286,0.719,0.7192,0.7193,0.7256,0,0.73,0.7323,0.729,0.732,0.7327,0.7281,0.7293,0.7281,0.7262,0.7265,0.7244,0.7248,0.7213,0.721,0.7222,0.7201,0.7232,0.7196,0.72,0.7201,0.7205,0.7297,0.732,0.738,0.7263,0.7265,0.7266,0,0.7384,0.7377,0.7408,0.7381,0.7382,0.7395,0.7386,0.7389,0.7373,0.7359,0.7353,0.7323,0.7335,0.7297,0.7312,0.7289,0.7288,0.7278,0.7279,0.7279,0.7237,0.7299,0.7398,0.7407,0.7278,0.7277,0.7276,0,0.7465,0.7464,0.7482,0.7476,0.7446,0.7455,0.7443,0.7425,0.7424,0.7417,0.7415,0.741,0.7407,0.7403,0.7372,0.7347,0.7391,0.7351,0.7379,0.738,0.7391,0.7391,0.7492,0.7391,0.7391,0.7391,0.739,0,0.7545,0.7566,0.7518,0.7529,0.755,0.7511,0.7533,0.7516,0.75,0.7507,0.7467,0.7474,0.7433,0.7435,0.7411,0.7427,0.7426,0.7414,0.7408,0.7418,0.742,0.7418,0.7413,0.7393,0.7392,0.7392,0.7392,0,0.7641,0.761,0.7626,0.7595,0.7587,0.7604,0.7578,0.7586,0.7564,0.7573,0.7573,0.7539,0.7539,0.7507,0.7502,0.7485,0.7512,0.7498,0.7517,0.7513,0.7542,0.754,0.7646,0.7658,0.7549,0.7551,0.7551,0,0.7694,0.7709,0.7679,0.768,0.7669,0.7672,0.7669,0.7631,0.763,0.7612,0.7623,0.7619,0.7615,0.7618,0.7592,0.7587,0.7573,0.761,0.7572,0.7581,0.7573,0.7572,0.7573,0.7618,0.762,0.7621,0.7622,0,0.7792,0.7775,0.7773,0.7765,0.7762,0.7754,0.7744,0.7747,0.7705,0.7706,0.7705,0.7702,0.7695,0.7692,0.7682,0.7669,0.7639,0.7634,0.764,0.7651,0.7661,0.7655,0.7539,0.7632,0.7631,0.763,0.763,0.7629,0.7868,0.7877,0.7857,0.7856,0.7843,0.7834,0.784,0.7817,0.7816,0.7807,0.7784,0.7787,0.7769,0.7752,0.7741,0.7743,0.7724,0.7733,0.7736,0.7739,0.7744,0.7661,0.7741,0.7741,0.774,0.774,0.774,0,0.7963,0.7947,0.7945,0.7931,0.7929,0.7899,0.7885,0.7886,0.7889,0.7874,0.787,0.7868,0.7864,0.7838,0.7831,0.7837,0.7823,0.7837,0.7836,0.7833,0.7762,0.7757,0.7848,0.7848,0.7848,0.7848,0.7848,0.7848,0.8012,0.8027,0.8007,0.8015,0.7999,0.8,0.7995,0.7985,0.7973,0.7973,0.7969,0.7951,0.7932,0.7923,0.7918,0.791,0.7909,0.7928,0.7915,0.7849,0.7839,0.7829,0.7824,0.7928,0.7928,0.7987,0.7987,0.7988]}]]